Location: Houston
(29.7631°N, 95.3631°W)
Time: 05:14:53
(UTC-06:00)

Envisat - Pass Details

Date: 28 October 2019
Orbit: 764 x 766 km, 98.1° (Epoch: 12 November)

Event Time Altitude Azimuth Distance (km) Brightness Sun altitude
Rises 20:49:17 0° 211° (SSW) 3,217 6.6 -29.0°
Reaches altitude 10° 20:52:51 10° 238° (WSW) 2,296 6.1 -29.8°
Maximum altitude 20:55:14 13° 266° (W) 2,074 6.1 -30.3°
Drops below altitude 10° 20:57:38 10° 295° (WNW) 2,301 6.2 -30.8°
Sets 21:01:14 0° 322° (NW) 3,232 6.8 -31.6°
